LUDI TANCE-4 01A

Last updated on Sun Dec 21 2025 00:02:57 GMT+0000 (Coordinated Universal Time)

1 57624U 23120A 25353.57048736 -.00000144 00000+0 00000+0 0 9998 2 57624 15.2291 198.4103 0006347 83.7716 101.4104 1.00271795 8746
UTC large
Height (km)
Speed (km/s)
/
Latitude / Longitude
Inclination (degrees)
Orbital Period (minutes)
Azimuth
Elevation
Range (km)
Doppler Factor

Next 0 passes for location: London (51.5072 / 0.1276)

Sorry there are no passes over London.